Time,TemperatureF,DewpointF,PressureIn,WindDirection,WindDirectionDegrees,WindSpeedMPH,WindSpeedGustMPH,Humidity,HourlyPrecipIn,Conditions,Clouds,dailyrainin,SolarRadiationWatts/m^2,SoftwareType,DateUTC
2013-08-03 00:00:00,63.6,57.0,29.88,SE,128,0.0,0.0,79,0.00,,,0.00,0,Wunderground v.1.15,2013-08-03 04:00:00,
2013-08-03 00:10:00,63.2,56.6,29.88,SE,128,0.0,0.0,79,0.00,,,0.00,0,Wunderground v.1.15,2013-08-03 04:10:00,
2013-08-03 00:20:00,62.9,56.6,29.87,SE,128,0.0,0.0,80,0.00,,,0.00,0,Wunderground v.1.15,2013-08-03 04:20:00,
2013-08-03 00:30:00,62.5,56.6,29.88,SE,128,0.0,0.0,81,0.00,,,0.00,0,Wunderground v.1.15,2013-08-03 04:30:00,
2013-08-03 00:40:00,62.1,56.2,29.87,SE,128,0.0,0.0,81,0.00,,,0.00,0,Wunderground v.1.15,2013-08-03 04:40:00,
2013-08-03 00:50:00,61.7,56.1,29.87,SE,128,0.0,0.0,82,0.00,,,0.00,0,Wunderground v.1.15,2013-08-03 04:50:00,
2013-08-03 01:00:00,61.4,56.2,29.87,SE,128,0.0,0.0,83,0.00,,,0.00,0,Wunderground v.1.15,2013-08-03 05:00:00,
2013-08-03 01:10:00,61.1,55.9,29.87,SE,128,0.0,0.0,83,0.00,,,0.00,0,Wunderground v.1.15,2013-08-03 05:10:00,
2013-08-03 01:19:00,60.8,55.9,29.87,SE,128,0.0,0.0,84,0.00,,,0.00,0,Wunderground v.1.15,2013-08-03 05:19:00,
2013-08-03 01:30:00,60.6,56.4,29.87,SE,128,0.0,0.0,86,0.00,,,0.00,0,Wunderground v.1.15,2013-08-03 05:30:00,
2013-08-03 01:40:00,60.5,56.3,29.87,SE,128,0.0,0.0,86,0.00,,,0.00,0,Wunderground v.1.15,2013-08-03 05:40:00,
2013-08-03 01:50:00,60.4,56.5,29.86,SE,128,0.0,0.0,87,0.00,,,0.00,0,Wunderground v.1.15,2013-08-03 05:50:00,
2013-08-03 02:00:00,60.4,56.8,29.85,SE,128,0.0,0.0,88,0.00,,,0.00,0,Wunderground v.1.15,2013-08-03 06:00:00,
2013-08-03 02:10:00,60.6,57.3,29.85,SE,133,0.0,0.0,89,0.00,,,0.00,0,Wunderground v.1.15,2013-08-03 06:10:00,
2013-08-03 02:20:00,60.8,57.8,29.84,SE,133,0.0,0.0,90,0.00,,,0.00,0,Wunderground v.1.15,2013-08-03 06:20:00,
2013-08-03 02:30:00,61.4,58.7,29.84,East,85,0.0,0.0,91,0.00,,,0.00,0,Wunderground v.1.15,2013-08-03 06:30:00,
2013-08-03 02:40:00,61.9,58.9,29.84,SE,144,0.0,0.0,90,0.00,,,0.00,0,Wunderground v.1.15,2013-08-03 06:40:00,
2013-08-03 02:50:00,62.2,59.2,29.83,SE,135,0.0,0.0,90,0.00,,,0.00,0,Wunderground v.1.15,2013-08-03 06:50:00,
2013-08-03 03:00:00,62.6,59.9,29.83,SSE,158,0.0,0.0,91,0.00,,,0.00,0,Wunderground v.1.15,2013-08-03 07:00:00,
2013-08-03 03:10:00,62.9,59.6,29.82,SE,128,0.0,0.0,89,0.00,,,0.00,0,Wunderground v.1.15,2013-08-03 07:10:00,
2013-08-03 03:20:00,63.0,59.4,29.82,SE,126,0.0,0.0,88,0.00,,,0.00,0,Wunderground v.1.15,2013-08-03 07:20:00,
2013-08-03 03:30:00,63.2,59.6,29.81,South,189,0.0,0.0,88,0.00,,,0.00,0,Wunderground v.1.15,2013-08-03 07:30:00,
2013-08-03 03:40:00,63.4,59.5,29.81,SSE,166,0.0,0.0,87,0.00,,,0.00,0,Wunderground v.1.15,2013-08-03 07:40:00,
2013-08-03 03:50:00,63.6,59.7,29.81,SSE,148,0.0,0.0,87,0.00,,,0.00,0,Wunderground v.1.15,2013-08-03 07:50:00,
2013-08-03 04:00:00,63.8,59.5,29.81,SE,140,0.0,0.0,86,0.00,,,0.00,0,Wunderground v.1.15,2013-08-03 08:00:00,
2013-08-03 04:10:00,64.0,60.1,29.81,SE,136,0.0,0.0,87,0.00,,,0.00,0,Wunderground v.1.15,2013-08-03 08:10:00,
2013-08-03 04:20:00,64.1,60.2,29.82,ESE,115,0.0,0.0,87,0.00,,,0.00,0,Wunderground v.1.15,2013-08-03 08:20:00,
2013-08-03 04:30:00,64.3,60.3,29.82,ENE,70,0.0,0.0,87,0.00,,,0.00,0,Wunderground v.1.15,2013-08-03 08:30:00,
2013-08-03 04:40:00,64.3,60.3,29.82,East,80,0.0,0.0,87,0.00,,,0.00,0,Wunderground v.1.15,2013-08-03 08:40:00,
2013-08-03 04:50:00,64.2,60.2,29.82,East,79,0.0,0.0,87,0.00,,,0.00,0,Wunderground v.1.15,2013-08-03 08:50:00,
2013-08-03 05:00:00,64.0,59.7,29.82,East,80,0.0,0.0,86,0.00,,,0.00,0,Wunderground v.1.15,2013-08-03 09:00:00,
2013-08-03 05:10:00,63.7,59.4,29.83,ENE,78,0.0,0.0,86,0.00,,,0.00,0,Wunderground v.1.15,2013-08-03 09:10:00,
2013-08-03 05:20:00,63.5,59.2,29.83,ENE,78,0.0,0.0,86,0.00,,,0.00,0,Wunderground v.1.15,2013-08-03 09:20:00,
2013-08-03 05:30:00,63.1,58.8,29.83,ENE,78,0.0,0.0,86,0.00,,,0.00,0,Wunderground v.1.15,2013-08-03 09:30:00,
2013-08-03 05:40:00,62.9,59.0,29.84,ENE,78,0.0,0.0,87,0.00,,,0.00,0,Wunderground v.1.15,2013-08-03 09:40:00,
2013-08-03 05:50:00,62.7,59.1,29.84,ENE,78,0.0,1.0,88,0.00,,,0.00,0,Wunderground v.1.15,2013-08-03 09:50:00,
2013-08-03 06:00:00,62.6,59.3,29.84,East,80,0.0,0.0,89,0.00,,,0.00,5,Wunderground v.1.15,2013-08-03 10:00:00,
2013-08-03 06:10:00,62.5,59.2,29.84,ENE,78,0.0,0.0,89,0.00,,,0.00,14,Wunderground v.1.15,2013-08-03 10:10:00,
2013-08-03 06:20:00,62.5,59.2,29.84,ENE,78,0.0,0.0,89,0.00,,,0.00,16,Wunderground v.1.15,2013-08-03 10:20:00,
2013-08-03 06:30:00,62.5,59.2,29.84,East,80,0.0,0.0,89,0.00,,,0.00,23,Wunderground v.1.15,2013-08-03 10:30:00,
2013-08-03 06:40:00,62.6,59.6,29.85,East,79,0.0,0.0,90,0.00,,,0.00,33,Wunderground v.1.15,2013-08-03 10:40:00,
2013-08-03 06:49:00,62.7,59.7,29.85,ENE,76,0.0,0.0,90,0.00,,,0.00,33,Wunderground v.1.15,2013-08-03 10:49:00,
2013-08-03 07:00:00,62.9,59.9,29.86,East,80,0.0,0.0,90,0.00,,,0.00,39,Wunderground v.1.15,2013-08-03 11:00:00,
2013-08-03 07:10:00,63.2,59.9,29.86,East,79,0.0,0.0,89,0.00,,,0.00,51,Wunderground v.1.15,2013-08-03 11:10:00,
2013-08-03 07:20:00,63.6,60.0,29.86,East,80,0.0,0.0,88,0.00,,,0.00,67,Wunderground v.1.15,2013-08-03 11:20:00,
2013-08-03 07:30:00,64.0,60.4,29.87,ENE,78,0.0,0.0,88,0.00,,,0.00,40,Wunderground v.1.15,2013-08-03 11:30:00,
2013-08-03 07:40:00,64.4,60.4,29.87,East,79,0.0,0.0,87,0.00,,,0.00,21,Wunderground v.1.15,2013-08-03 11:40:00,
2013-08-03 07:50:00,64.6,60.3,29.87,ENE,77,0.0,0.0,86,0.00,,,0.00,33,Wunderground v.1.15,2013-08-03 11:50:00,
2013-08-03 08:00:00,64.9,60.6,29.88,East,79,0.0,0.0,86,0.00,,,0.00,44,Wunderground v.1.15,2013-08-03 12:00:00,
2013-08-03 08:10:00,65.1,60.5,29.88,NW,307,0.0,0.0,85,0.00,,,0.00,100,Wunderground v.1.15,2013-08-03 12:10:00,
2013-08-03 08:20:00,65.6,61.0,29.88,NNW,348,0.0,0.0,85,0.00,,,0.00,134,Wunderground v.1.15,2013-08-03 12:20:00,
2013-08-03 08:30:00,66.3,60.6,29.88,North,349,1.0,1.0,82,0.00,,,0.00,127,Wunderground v.1.15,2013-08-03 12:30:00,
2013-08-03 08:39:00,67.3,60.6,29.88,NNE,12,1.0,1.0,79,0.00,,,0.00,213,Wunderground v.1.15,2013-08-03 12:39:00,
2013-08-03 08:50:00,68.4,61.3,29.88,NNW,341,2.0,5.0,78,0.00,,,0.00,197,Wunderground v.1.15,2013-08-03 12:50:00,
2013-08-03 09:00:00,68.9,61.8,29.87,WSW,253,1.0,1.0,78,0.00,,,0.00,179,Wunderground v.1.15,2013-08-03 13:00:00,
2013-08-03 09:09:00,69.4,61.9,29.87,North,360,1.0,1.0,77,0.00,,,0.00,213,Wunderground v.1.15,2013-08-03 13:09:00,
2013-08-03 09:20:00,70.0,61.7,29.87,NNW,329,1.0,1.0,75,0.00,,,0.00,218,Wunderground v.1.15,2013-08-03 13:20:00,
2013-08-03 09:30:00,70.7,62.0,29.87,WNW,290,1.0,1.0,74,0.00,,,0.00,223,Wunderground v.1.15,2013-08-03 13:30:00,
2013-08-03 09:40:00,71.3,61.4,29.87,NW,325,2.0,2.0,71,0.00,,,0.00,469,Wunderground v.1.15,2013-08-03 13:40:00,
2013-08-03 09:50:00,71.8,61.9,29.87,NW,325,2.0,2.0,71,0.00,,,0.00,183,Wunderground v.1.15,2013-08-03 13:50:00,
2013-08-03 10:00:00,72.0,61.7,29.86,NW,312,2.0,4.0,70,0.00,,,0.00,564,Wunderground v.1.15,2013-08-03 14:00:00,
2013-08-03 10:10:00,72.4,60.8,29.86,NNW,338,2.0,2.0,67,0.00,,,0.00,545,Wunderground v.1.15,2013-08-03 14:10:00,
2013-08-03 10:19:00,72.6,61.4,29.86,North,360,2.0,2.0,68,0.00,,,0.00,174,Wunderground v.1.15,2013-08-03 14:19:00,
2013-08-03 10:30:00,72.8,61.2,29.87,NW,323,1.0,3.0,67,0.00,,,0.00,243,Wunderground v.1.15,2013-08-03 14:30:00,
2013-08-03 10:40:00,72.8,60.3,29.86,NE,42,2.0,2.0,65,0.00,,,0.00,538,Wunderground v.1.15,2013-08-03 14:40:00,
2013-08-03 10:50:00,73.4,63.0,29.86,West,261,1.0,2.0,70,0.00,,,0.00,888,Wunderground v.1.15,2013-08-03 14:50:00,
2013-08-03 11:01:00,74.0,61.0,29.86,East,92,1.0,1.0,64,0.00,,,0.00,835,Wunderground v.1.15,2013-08-03 15:01:00,
2013-08-03 11:10:00,74.6,62.9,29.86,SSW,212,1.0,2.0,67,0.00,,,0.00,327,Wunderground v.1.15,2013-08-03 15:10:00,
2013-08-03 11:20:00,75.1,63.8,29.85,WNW,285,1.0,1.0,68,0.00,,,0.00,951,Wunderground v.1.15,2013-08-03 15:20:00,
2013-08-03 11:30:00,75.5,63.3,29.85,WSW,250,1.0,1.0,66,0.00,,,0.00,837,Wunderground v.1.15,2013-08-03 15:30:00,
2013-08-03 11:40:00,76.0,62.9,29.85,West,277,1.0,1.0,64,0.00,,,0.00,895,Wunderground v.1.15,2013-08-03 15:40:00,
2013-08-03 11:50:00,76.3,59.9,29.85,West,272,2.0,2.0,57,0.00,,,0.00,868,Wunderground v.1.15,2013-08-03 15:50:00,
2013-08-03 12:00:00,76.9,64.7,29.85,NW,306,2.0,2.0,66,0.00,,,0.00,912,Wunderground v.1.15,2013-08-03 16:00:00,
2013-08-03 12:10:00,77.5,63.5,29.85,West,273,1.0,2.0,62,0.00,,,0.00,923,Wunderground v.1.15,2013-08-03 16:10:00,
2013-08-03 12:20:00,77.9,60.4,29.85,NNE,24,1.0,1.0,55,0.00,,,0.00,271,Wunderground v.1.15,2013-08-03 16:20:00,
2013-08-03 12:30:00,77.7,61.7,29.85,SW,233,2.0,2.0,58,0.00,,,0.00,195,Wunderground v.1.15,2013-08-03 16:30:00,
2013-08-03 12:39:00,77.5,62.0,29.85,WNW,296,1.0,1.0,59,0.00,,,0.00,911,Wunderground v.1.15,2013-08-03 16:39:00,
2013-08-03 12:50:00,78.2,60.7,29.85,WNW,295,3.0,3.0,55,0.00,,,0.00,935,Wunderground v.1.15,2013-08-03 16:50:00,
2013-08-03 13:00:00,78.8,63.7,29.84,North,350,1.0,1.0,60,0.00,,,0.00,965,Wunderground v.1.15,2013-08-03 17:00:00,
2013-08-03 13:10:00,78.7,60.1,29.84,NW,313,2.0,11.0,53,0.00,,,0.00,234,Wunderground v.1.15,2013-08-03 17:10:00,
2013-08-03 13:20:00,78.5,58.3,29.84,NW,309,4.0,4.0,50,0.00,,,0.00,956,Wunderground v.1.15,2013-08-03 17:20:00,
2013-08-03 13:30:00,78.5,58.3,29.84,WNW,292,2.0,8.0,50,0.00,,,0.00,95,Wunderground v.1.15,2013-08-03 17:30:00,
2013-08-03 13:40:00,77.9,57.2,29.84,NW,311,3.0,3.0,49,0.00,,,0.00,132,Wunderground v.1.15,2013-08-03 17:40:00,
2013-08-03 13:50:00,78.3,59.8,29.84,NNW,337,2.0,2.0,53,0.00,,,0.00,190,Wunderground v.1.15,2013-08-03 17:50:00,
2013-08-03 14:00:00,78.4,59.3,29.83,WSW,245,3.0,3.0,52,0.00,,,0.00,169,Wunderground v.1.15,2013-08-03 18:00:00,
2013-08-03 14:10:00,78.1,56.8,29.83,West,263,3.0,6.0,48,0.00,,,0.00,130,Wunderground v.1.15,2013-08-03 18:10:00,
2013-08-03 14:20:00,78.3,54.0,29.83,WNW,285,3.0,7.0,43,0.00,,,0.00,141,Wunderground v.1.15,2013-08-03 18:20:00,
2013-08-03 14:30:00,78.5,57.2,29.83,West,276,4.0,6.0,48,0.00,,,0.00,118,Wunderground v.1.15,2013-08-03 18:30:00,
2013-08-03 14:40:00,78.4,54.0,29.83,North,10,5.0,5.0,43,0.00,,,0.00,84,Wunderground v.1.15,2013-08-03 18:40:00,
2013-08-03 14:50:00,78.0,54.9,29.83,NW,310,3.0,3.0,45,0.00,,,0.00,84,Wunderground v.1.15,2013-08-03 18:50:00,
2013-08-03 15:00:00,78.3,54.6,29.83,North,9,3.0,3.0,44,0.00,,,0.00,74,Wunderground v.1.15,2013-08-03 19:00:00,
2013-08-03 15:10:00,78.5,54.1,29.82,West,281,3.0,6.0,43,0.00,,,0.00,79,Wunderground v.1.15,2013-08-03 19:10:00,
2013-08-03 15:20:00,78.9,53.2,29.82,NNE,24,5.0,8.0,41,0.00,,,0.00,121,Wunderground v.1.15,2013-08-03 19:20:00,
2013-08-03 15:30:00,78.8,52.4,29.82,WNW,290,4.0,5.0,40,0.00,,,0.00,76,Wunderground v.1.15,2013-08-03 19:30:00,
2013-08-03 15:40:00,78.7,53.0,29.82,NW,326,4.0,8.0,41,0.00,,,0.00,56,Wunderground v.1.15,2013-08-03 19:40:00,
2013-08-03 15:50:00,78.6,52.9,29.82,North,360,2.0,5.0,41,0.00,,,0.00,51,Wunderground v.1.15,2013-08-03 19:50:00,
2013-08-03 16:00:00,78.5,52.8,29.82,NW,318,4.0,4.0,41,0.00,,,0.00,47,Wunderground v.1.15,2013-08-03 20:00:00,
2013-08-03 16:10:00,78.4,53.4,29.82,NNW,329,4.0,4.0,42,0.00,,,0.00,46,Wunderground v.1.15,2013-08-03 20:10:00,
2013-08-03 16:20:00,78.5,52.2,29.82,NNW,328,4.0,4.0,40,0.00,,,0.00,47,Wunderground v.1.15,2013-08-03 20:20:00,
2013-08-03 16:30:00,78.5,51.5,29.82,North,350,6.0,6.0,39,0.00,,,0.00,47,Wunderground v.1.15,2013-08-03 20:30:00,
2013-08-03 16:39:00,78.5,52.8,29.82,North,350,4.0,4.0,41,0.00,,,0.00,44,Wunderground v.1.15,2013-08-03 20:39:00,
2013-08-03 16:50:00,78.4,54.7,29.82,NE,54,3.0,3.0,44,0.00,,,0.00,171,Wunderground v.1.15,2013-08-03 20:50:00,
2013-08-03 17:00:00,78.5,53.5,29.83,West,276,4.0,8.0,42,0.00,,,0.00,104,Wunderground v.1.15,2013-08-03 21:00:00,
2013-08-03 17:09:00,78.7,53.7,29.83,NNE,23,6.0,6.0,42,0.00,,,0.00,411,Wunderground v.1.15,2013-08-03 21:09:00,
2013-08-03 17:20:00,78.7,53.0,29.83,WNW,301,5.0,5.0,41,0.00,,,0.00,86,Wunderground v.1.15,2013-08-03 21:20:00,
2013-08-03 17:30:00,78.2,53.2,29.83,NNW,333,5.0,5.0,42,0.00,,,0.00,67,Wunderground v.1.15,2013-08-03 21:30:00,
2013-08-03 17:40:00,78.0,52.4,29.83,NNW,341,5.0,5.0,41,0.00,,,0.00,37,Wunderground v.1.15,2013-08-03 21:40:00,
2013-08-03 17:50:00,77.5,52.6,29.83,WNW,293,4.0,4.0,42,0.00,,,0.00,35,Wunderground v.1.15,2013-08-03 21:50:00,
2013-08-03 18:00:00,77.3,54.3,29.84,NW,313,3.0,3.0,45,0.00,,,0.00,35,Wunderground v.1.15,2013-08-03 22:00:00,
2013-08-03 18:10:00,77.1,52.9,29.84,North,11,4.0,4.0,43,0.00,,,0.00,42,Wunderground v.1.15,2013-08-03 22:10:00,
2013-08-03 18:20:00,77.0,54.0,29.84,WNW,292,4.0,9.0,45,0.00,,,0.00,63,Wunderground v.1.15,2013-08-03 22:20:00,
2013-08-03 18:30:00,77.4,51.9,29.84,NW,315,6.0,6.0,41,0.00,,,0.00,258,Wunderground v.1.15,2013-08-03 22:30:00,
2013-08-03 18:40:00,77.5,51.3,29.84,WNW,302,5.0,5.0,40,0.00,,,0.00,227,Wunderground v.1.15,2013-08-03 22:40:00,
2013-08-03 18:49:00,77.4,51.2,29.84,WNW,299,5.0,5.0,40,0.00,,,0.00,197,Wunderground v.1.15,2013-08-03 22:49:00,
2013-08-03 19:00:00,76.6,50.5,29.85,NNW,332,5.0,5.0,40,0.00,,,0.00,30,Wunderground v.1.15,2013-08-03 23:00:00,
2013-08-03 19:10:00,75.6,49.6,29.85,NNW,327,4.0,4.0,40,0.00,,,0.00,25,Wunderground v.1.15,2013-08-03 23:10:00,
2013-08-03 19:20:00,74.9,50.9,29.85,NW,322,3.0,5.0,43,0.00,,,0.00,21,Wunderground v.1.15,2013-08-03 23:20:00,
2013-08-03 19:30:00,74.3,51.0,29.85,NW,311,3.0,3.0,44,0.00,,,0.00,18,Wunderground v.1.15,2013-08-03 23:30:00,
2013-08-03 19:40:00,73.9,50.6,29.85,NW,321,3.0,3.0,44,0.00,,,0.00,14,Wunderground v.1.15,2013-08-03 23:40:00,
2013-08-03 19:50:00,73.4,50.8,29.85,WNW,299,3.0,4.0,45,0.00,,,0.00,11,Wunderground v.1.15,2013-08-03 23:50:00,
2013-08-03 20:00:00,72.9,50.9,29.86,NNW,342,3.0,6.0,46,0.00,,,0.00,5,Wunderground v.1.15,2013-08-04 00:00:00,
2013-08-03 20:10:00,72.5,51.1,29.86,NNW,331,3.0,3.0,47,0.00,,,0.00,0,Wunderground v.1.15,2013-08-04 00:10:00,
2013-08-03 20:20:00,72.1,50.8,29.86,NW,326,2.0,3.0,47,0.00,,,0.00,0,Wunderground v.1.15,2013-08-04 00:20:00,
2013-08-03 20:30:00,71.7,51.0,29.86,WNW,299,3.0,3.0,48,0.00,,,0.00,0,Wunderground v.1.15,2013-08-04 00:30:00,
2013-08-03 20:40:00,71.4,51.2,29.86,WNW,301,2.0,2.0,49,0.00,,,0.00,0,Wunderground v.1.15,2013-08-04 00:40:00,
2013-08-03 20:50:00,71.1,51.0,29.87,NW,315,2.0,2.0,49,0.00,,,0.00,0,Wunderground v.1.15,2013-08-04 00:50:00,
2013-08-03 21:00:00,70.8,51.2,29.87,NNW,335,2.0,3.0,50,0.00,,,0.00,0,Wunderground v.1.15,2013-08-04 01:00:00,
2013-08-03 21:10:00,70.5,51.0,29.87,West,265,2.0,3.0,50,0.00,,,0.00,0,Wunderground v.1.15,2013-08-04 01:10:00,
2013-08-03 21:20:00,70.3,50.8,29.88,NW,309,2.0,2.0,50,0.00,,,0.00,0,Wunderground v.1.15,2013-08-04 01:20:00,
2013-08-03 21:30:00,70.0,51.0,29.88,NNW,327,2.0,3.0,51,0.00,,,0.00,0,Wunderground v.1.15,2013-08-04 01:30:00,
2013-08-03 21:40:00,69.8,50.9,29.89,North,360,2.0,3.0,51,0.00,,,0.00,0,Wunderground v.1.15,2013-08-04 01:40:00,
2013-08-03 21:49:00,69.6,51.2,29.89,NNW,329,2.0,2.0,52,0.00,,,0.00,0,Wunderground v.1.15,2013-08-04 01:49:00,
2013-08-03 22:00:00,69.3,51.4,29.89,NW,314,2.0,2.0,53,0.00,,,0.00,0,Wunderground v.1.15,2013-08-04 02:00:00,
2013-08-03 22:10:00,69.0,51.2,29.89,North,360,2.0,2.0,53,0.00,,,0.00,0,Wunderground v.1.15,2013-08-04 02:10:00,
2013-08-03 22:20:00,68.5,51.2,29.89,WNW,303,1.0,1.0,54,0.00,,,0.00,0,Wunderground v.1.15,2013-08-04 02:20:00,
2013-08-03 22:30:00,68.0,51.7,29.89,WNW,287,1.0,1.0,56,0.00,,,0.00,0,Wunderground v.1.15,2013-08-04 02:30:00,
2013-08-03 22:40:00,67.4,51.6,29.89,NNW,332,1.0,1.0,57,0.00,,,0.00,0,Wunderground v.1.15,2013-08-04 02:40:00,
2013-08-03 22:50:00,66.8,51.5,29.88,NW,326,2.0,2.0,58,0.00,,,0.00,0,Wunderground v.1.15,2013-08-04 02:50:00,
2013-08-03 23:00:00,66.4,52.5,29.88,NNW,345,2.0,3.0,61,0.00,,,0.00,0,Wunderground v.1.15,2013-08-04 03:00:00,
2013-08-03 23:10:00,66.0,51.7,29.88,NNW,332,2.0,2.0,60,0.00,,,0.00,0,Wunderground v.1.15,2013-08-04 03:10:00,
2013-08-03 23:20:00,65.8,52.4,29.88,WNW,300,1.0,2.0,62,0.00,,,0.00,0,Wunderground v.1.15,2013-08-04 03:20:00,
2013-08-03 23:30:00,65.4,53.7,29.88,WNW,292,0.0,0.0,66,0.00,,,0.00,0,Wunderground v.1.15,2013-08-04 03:30:00,
2013-08-03 23:40:00,64.7,53.9,29.88,WNW,288,0.0,0.0,68,0.00,,,0.00,0,Wunderground v.1.15,2013-08-04 03:40:00,
2013-08-03 23:50:00,63.9,53.1,29.88,WNW,288,0.0,0.0,68,0.00,,,0.00,0,Wunderground v.1.15,2013-08-04 03:50:00,